Perry, IA

11:29 AM CST on February 25, 2017 (GMT -0600)
Perry Municipal

Weather History for KPRO - January, 2013

Change the Weather History Date:

Wednesday, January 2, 2013

  Actual Average Record
Temperature  
Mean Temperature 15 °F -  
Max Temperature 30 °F 27 °F 54 °F (1964)
Min Temperature 0 °F 10 °F -16 °F (1974)
Degree Days  
Heating Degree Days 50    
Moisture  
Dew Point 14 °F    
Average Humidity 88    
Maximum Humidity 93    
Minimum Humidity 80    
Precipitation  
Precipitation 0.00 in - - ()
Sea Level Pressure  
Sea Level Pressure 30.06 in    
Wind  
Wind Speed 8 mph (WSW)    
Max Wind Speed 15 mph    
Max Gust Speed -    
Visibility 9 miles    
Events Snow    
Averages and records for this station are not official NWS values.
T = Trace of Precipitation, MM = Missing Value Source: NWS Daily Summary

Daily Weather History Graph

Daily Weather History Graph

Search for Another Location

Airport or City:

Trip Planner

Search our weather history database for the weather conditions in past years. The results will help you decide how hot, cold, wet, or windy it might be!

Date:

Astronomy

Jan. 02, 2013 Rise Set
Actual Time 7:44 AM CST 4:57 PM CST
Civil Twilight 7:12 AM CST 5:29 PM CST
Nautical Twilight 6:37 AM CST 6:04 PM CST
Astronomical Twilight 6:04 AM CST 6:37 PM CST
Moon 10:36 PM CST (1/2) 10:21 AM CST (1/2)
Length of Visible Light 10h 16m
Length of Day
9h 13m
Waning Gibbous, 75% of the Moon is Illuminated
Jan 2
Waning Gibbous
Jan 4
Last Quarter
Jan 11
New
Jan 18
First Quarter
Jan 26
Full

Hourly Weather History & Observations

Time (CST) Temp. Windchill Dew Point Humidity Pressure Visibility Wind Dir Wind Speed Gust Speed Precip Events Conditions
12:15 AM 3.0 °F -9.3 °F -1.1 °F 83% 30.12 in 10.0 mi South 6.9 mph - N/A   Clear
12:35 AM 4.5 °F -8.7 °F 0.9 °F 85% 30.11 in 10.0 mi South 8.1 mph - N/A   Clear
12:55 AM 4.8 °F -8.3 °F 0.5 °F 82% 30.10 in 10.0 mi South 8.1 mph - N/A   Clear
1:15 AM 4.3 °F -10.9 °F 0.1 °F 83% 30.10 in 10.0 mi South 10.4 mph - N/A   Clear
1:35 AM 4.6 °F -9.5 °F 0.7 °F 84% 30.08 in 10.0 mi South 9.2 mph - N/A   Clear
1:55 AM 3.2 °F -10.3 °F -0.8 °F 84% 30.08 in 10.0 mi South 8.1 mph - N/A   Clear
2:15 AM 3.4 °F -8.9 °F -0.2 °F 85% 30.07 in 10.0 mi South 6.9 mph - N/A   Clear
2:35 AM 3.4 °F -5.9 °F 0.1 °F 86% 30.09 in 10.0 mi South 4.6 mph - N/A   Clear
2:55 AM 2.1 °F -10.4 °F -1.3 °F 86% 30.09 in 10.0 mi South 6.9 mph - N/A   Clear
3:35 AM 2.8 °F -4.6 °F -0.2 °F 87% 30.06 in 10.0 mi South 3.5 mph - N/A   Clear
3:55 AM 2.7 °F -4.8 °F -0.4 °F 87% 30.05 in 10.0 mi South 3.5 mph - N/A   Clear
4:15 AM 1.8 °F -7.8 °F -0.6 °F 90% 30.04 in 10.0 mi SSE 4.6 mph - N/A   Clear
4:35 AM 1.4 °F -9.9 °F -0.9 °F 90% 30.03 in 10.0 mi SSE 5.8 mph - N/A   Clear
4:55 AM 0.5 °F -12.3 °F -1.5 °F 91% 30.02 in 10.0 mi South 6.9 mph - N/A   Clear
5:15 AM 3.7 °F -7.1 °F 1.9 °F 92% 30.03 in 10.0 mi South 5.8 mph - N/A   Clear
5:35 AM 2.1 °F -10.4 °F -0.2 °F 90% 30.02 in 10.0 mi SSE 6.9 mph - N/A   Clear
5:55 AM 2.1 °F -9.0 °F -0.0 °F 91% 30.03 in 10.0 mi South 5.8 mph - N/A   Clear
6:15 AM 2.3 °F -7.2 °F -0.2 °F 89% 30.03 in 7.0 mi South 4.6 mph - N/A   Clear
6:35 AM 3.6 °F -8.7 °F 1.8 °F 92% 30.02 in 7.0 mi SSW 6.9 mph - N/A   Clear
6:55 AM 1.8 °F -10.8 °F -0.9 °F 88% 30.03 in 7.0 mi South 6.9 mph - N/A   Clear
7:15 AM 2.5 °F -5.0 °F -0.0 °F 89% 30.02 in 7.0 mi South 3.5 mph - N/A   Clear
7:35 AM 3.7 °F - 1.4 °F 90% 30.03 in 7.0 mi Calm Calm - N/A   Clear
7:55 AM 3.4 °F - 0.9 °F 89% 30.03 in 5.0 mi Calm Calm - N/A   Clear
8:15 AM 3.2 °F - 0.7 °F 89% 30.04 in 5.0 mi Calm Calm - N/A   Clear
8:35 AM 5.7 °F - 3.7 °F 92% 30.03 in 5.0 mi Calm Calm - N/A   Clear
8:55 AM 4.1 °F -3.2 °F 1.8 °F 90% 30.03 in 5.0 mi South 3.5 mph - N/A   Clear
9:15 AM 5.0 °F -2.1 °F 2.3 °F 89% 30.02 in 5.0 mi SSE 3.5 mph - N/A   Clear
9:35 AM 8.2 °F -0.3 °F 5.9 °F 90% 30.03 in 7.0 mi SW 4.6 mph - N/A   Clear
9:55 AM 7.5 °F 0.8 °F 5.0 °F 89% 30.04 in 7.0 mi NNW 3.5 mph - N/A   Clear
10:15 AM 10.2 °F -1.7 °F 7.2 °F 87% 30.05 in 7.0 mi SW 8.1 mph - N/A   Clear
10:35 AM 14.0 °F 5.1 °F 10.8 °F 87% 30.04 in 7.0 mi WSW 5.8 mph - N/A   Scattered Clouds
10:55 AM 17.8 °F 5.2 °F 13.1 °F 82% 30.05 in 7.0 mi West 11.5 mph - N/A   Scattered Clouds
11:15 AM 19.6 °F 8.9 °F 14.7 °F 81% 30.04 in 7.0 mi West 9.2 mph - N/A   Mostly Cloudy
11:35 AM 20.3 °F 10.6 °F 15.3 °F 81% 30.04 in 10.0 mi WSW 8.1 mph - N/A   Overcast
11:55 AM 21.2 °F 9.5 °F 16.3 °F 82% 30.04 in 10.0 mi West 11.5 mph - N/A   Overcast
12:15 PM 22.1 °F 12.0 °F 17.1 °F 81% 30.03 in 10.0 mi West 9.2 mph - N/A   Overcast
12:35 PM 22.8 °F 12.2 °F 18.1 °F 82% 30.03 in 10.0 mi West 10.4 mph - N/A   Overcast
12:55 PM 23.5 °F 13.7 °F 18.3 °F 80% 30.02 in 10.0 mi WSW 9.2 mph - N/A   Overcast
1:15 PM 23.7 °F 14.0 °F 19.0 °F 82% 30.02 in 10.0 mi WSW 9.2 mph - N/A   Overcast
1:35 PM 23.7 °F 14.0 °F 19.6 °F 84% 30.02 in 10.0 mi WSW 9.2 mph - N/A   Overcast
1:55 PM 24.3 °F 14.6 °F 20.3 °F 85% 30.02 in 7.0 mi WSW 9.2 mph - N/A   Overcast
2:15 PM 24.4 °F 14.2 °F 20.5 °F 85% 30.02 in 7.0 mi WSW 10.4 mph - N/A   Overcast
2:35 PM 24.8 °F 14.6 °F 21.2 °F 86% 30.02 in 7.0 mi WSW 10.4 mph - N/A   Overcast
2:55 PM 25.3 °F 16.7 °F 21.9 °F 87% 30.02 in 7.0 mi WSW 8.1 mph - N/A   Overcast
3:15 PM 25.0 °F 17.1 °F 21.9 °F 88% 30.03 in 7.0 mi WSW 6.9 mph - N/A   Overcast
3:35 PM 25.7 °F 15.7 °F 22.6 °F 88% 30.04 in 10.0 mi West 10.4 mph - N/A   Overcast
3:55 PM 26.4 °F 16.0 °F 23.2 °F 88% 30.04 in 7.0 mi West 11.5 mph - N/A   Overcast
4:15 PM 26.8 °F 16.5 °F 23.7 °F 88% 30.04 in 10.0 mi West 11.5 mph - N/A   Overcast
4:35 PM 27.0 °F 17.3 °F 24.3 °F 90% 30.05 in 10.0 mi West 10.4 mph - N/A   Overcast
4:55 PM 27.5 °F 17.4 °F 24.8 °F 90% 30.06 in 10.0 mi West 11.5 mph - N/A   Overcast
5:15 PM 27.7 °F 17.6 °F 25.3 °F 91% 30.07 in 10.0 mi West 11.5 mph - N/A   Overcast
5:35 PM 28.0 °F 17.5 °F 25.5 °F 90% 30.07 in 10.0 mi West 12.7 mph - N/A   Overcast
5:55 PM 28.0 °F 17.5 °F 25.7 °F 91% 30.07 in 10.0 mi West 12.7 mph - N/A   Overcast
6:15 PM 28.9 °F 17.7 °F 26.6 °F 91% 30.09 in 10.0 mi West 15.0 mph - N/A   Overcast
6:35 PM 29.1 °F 18.4 °F 27.0 °F 92% 30.09 in 10.0 mi West 13.8 mph - N/A Snow Light Snow
6:55 PM 29.3 °F 19.1 °F 27.3 °F 92% 30.09 in 10.0 mi West 12.7 mph - N/A   Overcast
7:15 PM 29.3 °F 18.6 °F 27.3 °F 92% 30.09 in 10.0 mi West 13.8 mph - N/A   Overcast
7:35 PM 29.3 °F 18.6 °F 27.1 °F 92% 30.09 in 10.0 mi West 13.8 mph - N/A   Overcast
7:55 PM 29.3 °F 19.1 °F 27.5 °F 93% 30.09 in 10.0 mi West 12.7 mph - N/A   Overcast
8:15 PM 29.3 °F 18.2 °F 27.3 °F 92% 30.10 in 10.0 mi West 15.0 mph - N/A   Overcast
8:35 PM 28.0 °F 18.6 °F 25.9 °F 92% 30.10 in 10.0 mi West 10.4 mph - N/A   Mostly Cloudy
8:55 PM 26.6 °F 16.2 °F 24.8 °F 93% 30.11 in 10.0 mi West 11.5 mph - N/A   Mostly Cloudy
9:15 PM 28.4 °F 17.5 °F 26.6 °F 93% 30.11 in 10.0 mi West 13.8 mph - N/A   Overcast
9:35 PM 30.2 °F 19.8 °F 27.0 °F 88% 30.12 in 10.0 mi WNW 13.8 mph - N/A   Overcast
9:55 PM 30.0 °F 20.5 °F 26.4 °F 86% 30.13 in 10.0 mi WNW 11.5 mph - N/A   Overcast
10:15 PM 29.7 °F 22.8 °F 26.1 °F 86% 30.14 in 10.0 mi WNW 6.9 mph - N/A   Overcast
10:35 PM 29.3 °F 20.2 °F 26.4 °F 89% 30.15 in 10.0 mi WNW 10.4 mph - N/A   Overcast
10:55 PM 28.8 °F 20.9 °F 26.6 °F 92% 30.15 in 10.0 mi West 8.1 mph - N/A   Overcast
11:15 PM 28.6 °F 18.7 °F 26.6 °F 92% 30.16 in 10.0 mi West 11.5 mph - N/A   Overcast
11:35 PM 28.4 °F 19.1 °F 26.6 °F 93% 30.16 in 10.0 mi West 10.4 mph - N/A   Overcast
11:55 PM 29.3 °F 19.1 °F 27.1 °F 92% 30.16 in 10.0 mi WNW 12.7 mph - N/A   Overcast